Weather History for Sarasota, FL

Change the Weather History Date:

Friday, August 16, 2013

  Actual Average Record
Temperature  
Mean Temperature 84 °F 82 °F  
Max Temperature 90 °F 90 °F 99 °F (1995)
Min Temperature 77 °F 74 °F 67 °F (1972)
Degree Days  
Heating Degree Days 0 0  
Month to date heating degree days 0 0  
Since 1 June heating degree days 0 0  
Since 1 July heating degree days 0 0  
Cooling Degree Days 19 17  
Month to date cooling degree days 303 272  
Year to date cooling degree days 2233 2034  
Since 1 June cooling degree days 1365 1283  
Growing Degree Days 34 (Base 50)    
Moisture  
Dew Point 75 °F    
Average Humidity 71    
Maximum Humidity 91    
Minimum Humidity 63    
Precipitation  
Precipitation 0.32 in 0.33 in 2.10 in (1970)
Month to date precipitation 3.14 4.64  
Year to date precipitation 30.43 33.83  
Sea Level Pressure  
Sea Level Pressure 30.01 in    
Wind  
Wind Speed 7 mph (SW)    
Max Wind Speed 26 mph    
Max Gust Speed 39 mph    
Visibility 10 miles    
Events Rain , Thunderstorm    
T = Trace of Precipitation, MM = Missing Value Source: NWS Daily Summary

Daily Weather History Graph

Daily Weather History Graph

Search for Another Location

Airport:

Trip Planner

Search our weather history database for the weather conditions in past years. The results will help you decide how hot, cold, wet, or windy it might be!

Date:

Astronomy

Aug. 16, 2013 Rise Set
Actual Time 7:01 AM EDT 8:06 PM EDT
Civil Twilight 6:37 AM EDT 8:31 PM EDT
Nautical Twilight 6:08 AM EDT 8:59 PM EDT
Astronomical Twilight 5:38 AM EDT 9:29 PM EDT
Moon 4:14 PM EDT (8/16) 2:13 AM EDT (8/16)
Length of Visible Light 13h 53m
Length of Day
13h 04m
Waxing Gibbous, 74% of the Moon is Illuminated
Aug 16
Waxing Gibbous
Aug 20
Full
Aug 28
Last Quarter
Sep 5
New
Sep 12
First Quarter

Hourly Weather History & Observations

Time (EDT) Temp. Heat Index Dew Point Humidity Pressure Visibility Wind Dir Wind Speed Gust Speed Precip Events Conditions
1:53 AM 79.0 °F - 75.9 °F 90% 30.01 in 10.0 mi SSE 4.6 mph - N/A   Clear
2:53 AM 79.0 °F - 75.9 °F 90% 29.99 in 10.0 mi SSE 4.6 mph - N/A   Clear
3:53 AM 82.9 °F 89.4 °F 73.9 °F 74% 29.99 in 10.0 mi SSW 10.4 mph - N/A   Partly Cloudy
4:53 AM 84.0 °F 90.2 °F 73.0 °F 69% 29.99 in 10.0 mi SW 6.9 mph - N/A   Partly Cloudy
5:53 AM 84.0 °F 91.2 °F 73.9 °F 72% 30.01 in 10.0 mi SW 18.4 mph 26.5 mph N/A   Mostly Cloudy
6:07 AM 80.6 °F 84.6 °F 71.6 °F 74% 30.02 in 10.0 mi WSW 20.7 mph 32.2 mph 0.00 in Rain Rain
6:53 AM 81.0 °F 85.2 °F 72.0 °F 74% 30.01 in 10.0 mi WSW 12.7 mph 20.7 mph 0.00 in   Overcast
7:53 AM 82.0 °F 87.4 °F 73.0 °F 74% 30.01 in 10.0 mi South 5.8 mph - N/A   Overcast
8:53 AM 81.0 °F 86.2 °F 73.9 °F 79% 30.02 in 10.0 mi Calm Calm - N/A   Partly Cloudy
9:53 AM 82.9 °F 90.2 °F 75.0 °F 77% 30.03 in 10.0 mi SE 4.6 mph - N/A   Mostly Cloudy
10:53 AM 84.9 °F 93.3 °F 75.0 °F 72% 30.04 in 10.0 mi Calm Calm - N/A   Partly Cloudy
11:00 AM 87.8 °F 97.6 °F 75.2 °F 66% 30.04 in 10.0 mi Variable 5.8 mph - N/A   Mostly Cloudy
11:08 AM 87.8 °F 95.6 °F 73.4 °F 62% 30.03 in 10.0 mi ENE 4.6 mph - N/A   Scattered Clouds
11:45 AM 86.0 °F 95.1 °F 75.2 °F 70% 30.05 in 10.0 mi West 6.9 mph - N/A   Mostly Cloudy
11:53 AM 86.0 °F 95.1 °F 75.0 °F 70% 30.04 in 10.0 mi SW 6.9 mph - N/A   Mostly Cloudy
12:13 PM 87.8 °F 95.6 °F 73.4 °F 62% 30.03 in 10.0 mi Calm Calm - N/A   Scattered Clouds
12:53 PM 89.1 °F 99.1 °F 75.0 °F 63% 30.02 in 10.0 mi SW 5.8 mph - N/A   Clear
1:53 PM 90.0 °F 100.2 °F 75.0 °F 61% 30.01 in 10.0 mi WSW 8.1 mph - N/A   Partly Cloudy
2:53 PM 88.0 °F 96.5 °F 73.9 °F 63% 29.99 in 10.0 mi WSW 4.6 mph - N/A   Clear
3:53 PM 89.1 °F 99.1 °F 75.0 °F 63% 29.97 in 10.0 mi WSW 9.2 mph - N/A   Clear
4:53 PM 89.1 °F 99.1 °F 75.0 °F 63% 29.96 in 10.0 mi SW 6.9 mph - N/A   Clear
5:53 PM 89.1 °F 100.2 °F 75.9 °F 65% 29.96 in 10.0 mi SW 4.6 mph - N/A   Clear
6:53 PM 87.1 °F 97.3 °F 75.9 °F 69% 29.98 in 10.0 mi SW 5.8 mph - N/A   Clear
7:53 PM 86.0 °F 96.0 °F 75.9 °F 72% 29.99 in 10.0 mi WNW 4.6 mph - N/A   Clear
8:53 PM 86.0 °F 96.0 °F 75.9 °F 72% 30.01 in 10.0 mi West 3.5 mph - N/A   Clear
9:53 PM 86.0 °F 93.8 °F 73.9 °F 67% 30.03 in 10.0 mi West 4.6 mph - N/A   Scattered Clouds
10:53 PM 84.9 °F 93.3 °F 75.0 °F 72% 30.04 in 10.0 mi Calm Calm - N/A   Scattered Clouds
11:41 PM 84.2 °F 92.3 °F 75.2 °F 74% 30.03 in 10.0 mi Calm Calm - N/A Thunderstorm Scattered Clouds
11:53 PM 84.0 °F 92.6 °F 75.9 °F 76% 30.04 in 10.0 mi SSW 13.8 mph 28.8 mph N/A Thunderstorm Thunderstorm